TimeEDT,TemperatureF,Dew PointF,Humidity,Sea Level PressureIn,VisibilityMPH,Wind Direction,Wind SpeedMPH,Gust SpeedMPH,PrecipitationIn,Events,Conditions,WindDirDegrees,DateUTC
1:54 AM,37.9,36.0,93,29.63,10.0,Calm,Calm,-,N/A,,Clear,0,2012-11-01 05:54:00
2:54 AM,37.9,36.0,93,29.63,10.0,Calm,Calm,-,N/A,,Clear,0,2012-11-01 06:54:00
3:54 AM,34.0,33.1,96,29.64,10.0,Calm,Calm,-,N/A,,Clear,0,2012-11-01 07:54:00
4:54 AM,35.1,34.0,96,29.64,10.0,Calm,Calm,-,N/A,,Clear,0,2012-11-01 08:54:00
5:54 AM,35.1,34.0,96,29.63,10.0,Calm,Calm,-,N/A,,Clear,0,2012-11-01 09:54:00
6:54 AM,34.0,33.1,96,29.64,10.0,Calm,Calm,-,N/A,,Clear,0,2012-11-01 10:54:00
9:54 AM,48.0,37.9,68,29.67,10.0,West,12.7,18.4,N/A,,Overcast,260,2012-11-01 13:54:00
10:54 AM,48.0,37.0,66,29.68,10.0,West,12.7,-,N/A,,Overcast,260,2012-11-01 14:54:00
11:54 AM,48.0,37.0,66,29.68,10.0,West,11.5,-,N/A,,Overcast,270,2012-11-01 15:54:00
12:46 PM,50.0,37.4,62,29.66,10.0,West,10.4,19.6,N/A,,Overcast,270,2012-11-01 16:46:00
12:54 PM,50.0,37.9,63,29.66,10.0,West,13.8,17.3,N/A,,Overcast,270,2012-11-01 16:54:00
1:44 PM,51.8,37.4,58,29.64,10.0,WSW,10.4,-,N/A,,Overcast,250,2012-11-01 17:44:00
1:54 PM,51.1,37.9,61,29.65,10.0,West,12.7,-,N/A,,Overcast,280,2012-11-01 17:54:00
2:25 PM,51.8,37.4,58,29.64,10.0,West,11.5,-,N/A,,Overcast,280,2012-11-01 18:25:00
2:54 PM,51.1,37.9,61,29.63,10.0,West,13.8,-,N/A,,Overcast,260,2012-11-01 18:54:00
4:54 PM,50.0,37.0,61,29.65,10.0,West,9.2,-,N/A,,Overcast,280,2012-11-01 20:54:00
5:54 PM,48.0,37.9,68,29.66,10.0,West,8.1,-,N/A,,Overcast,270,2012-11-01 21:54:00
6:54 PM,46.0,37.9,73,29.68,10.0,West,6.9,-,N/A,,Mostly Cloudy,260,2012-11-01 22:54:00
7:54 PM,46.9,37.9,71,29.69,10.0,WSW,5.8,-,N/A,,Mostly Cloudy,250,2012-11-01 23:54:00
8:54 PM,46.9,37.9,71,29.68,10.0,WSW,5.8,-,N/A,,Mostly Cloudy,250,2012-11-02 00:54:00
9:54 PM,46.9,37.9,71,29.69,10.0,West,6.9,-,N/A,,Overcast,260,2012-11-02 01:54:00
10:54 PM,48.0,37.9,68,29.70,10.0,West,11.5,-,N/A,,Overcast,260,2012-11-02 02:54:00
11:54 PM,46.9,37.9,71,29.70,10.0,West,8.1,-,N/A,,Overcast,260,2012-11-02 03:54:00